Location: Dalovy
(49.7964°N, 14.8556°E)
Time: 05:22:25
(UTC+00:00)

Daily predictions for brighter satellites

Satellite Brightness Start Highest point End
(mag) Time Altitude Azimuth Time Altitude Azimuth Time Altitude Azimuth
SL-16 R/B 2.4 00:02:15 24° S 00:05:39 62° ESE 00:11:16 10° NE
GP-B 3.9 00:03:16 10° NNW 00:07:26 40° W 00:09:41 23° SW
Aureole 3 3.2 00:04:50 10° NNW 00:08:07 57° W 00:09:43 30° SSW
Helios 1A 2.9 00:05:56 26° S 00:08:16 80° WSW 00:12:28 10° NNW
EO 1 Del DPAF 3.7 00:04:40 10° N 00:08:17 50° WNW 00:10:03 26° SW
Cosmos 405 Rocket 4.2 00:08:13 16° SE 00:10:25 27° E 00:13:35 10° NE
OPS 6432 4.5 00:07:47 10° NW 00:10:45 68° NE 00:14:13 10° SE
Cosmos 1812 Rocket 4.1 00:08:10 10° NNW 00:12:18 43° W 00:14:18 26° SSW
Cosmos 2237 Rocket 2.8 00:08:47 16° SW 00:13:10 50° NW 00:18:39 10° NNE
Meteor 1-27 4.2 00:12:13 10° NNW 00:17:46 73° W 00:21:37 20° S
Cosmos-2242 3.1 00:14:15 10° NNW 00:18:37 63° W 00:21:03 25° S
Meteor 1-11 4.4 00:16:38 22° SSW 00:20:16 63° WNW 00:25:50 10° N
Cosmos 2369 Rocket 2.7 00:18:34 10° NNW 00:24:17 64° ENE 00:29:57 10° SE
Helios 1B rocket 3.6 00:21:11 10° NNE 00:24:58 35° E 00:27:47 16° SSE
CZ-2D R/B 2.6 00:20:58 10° NNE 00:26:05 52° E 00:29:56 17° S
FALCON 9 DEB 3.1 00:24:46 15° W 00:27:13 68° NNW 00:30:21 10° ENE
Cosmos 1869 3.3 00:23:24 10° NNW 00:27:31 74° W 00:29:58 23° S
Resurs 1-4 Rocket 2.6 00:22:37 10° NNE 00:27:52 56° E 00:31:49 17° S
SL-4 R/B 1.9 00:27:43 27° SW 00:29:28 52° SSE 00:32:56 10° ENE
Cosmos 1825 2.9 00:29:22 19° SSE 00:31:48 46° E 00:35:26 10° NNE
Lacrosse 5 rocket 3.0 00:29:20 10° WNW 00:32:31 29° NNW 00:35:44 10° NE
ADEOS Rocket 4.1 00:26:09 10° SE 00:33:21 54° ENE 00:39:56 10° N
Cosmos 2297 4.0 00:31:32 10° NW 00:36:57 50° WSW 00:41:08 17° S
Aureole 3 Rocket 4.5 00:35:29 10° NNE 00:38:27 28° ENE 00:42:02 10° SE
NOSS 2-3 (C) 4.0 00:39:20 22° S 00:41:48 50° SE 00:46:31 10° NE
Cosmos 2278 Rocket 4.1 00:39:32 10° WNW 00:41:51 13° W 00:43:47 11° WSW
Cosmos 1437 Rocket 3.2 00:38:11 10° N 00:42:08 61° ENE 00:45:46 11° SSE
Exosat Rocket 4.3 00:37:19 17° S 00:42:46 60° ESE 00:48:08 10° NNE
UNK 3.7 00:40:57 14° SSE 00:44:56 88° WSW 00:49:35 10° NNW
Cosmos 1825 Rocket 3.9 00:42:36 21° SSW 00:45:25 56° WNW 00:49:50 10° N
Cosmos 2221 2.9 00:43:23 10° N 00:47:42 64° ENE 00:51:57 10° SSE
Lacrosse 4 Rocket 4.3 00:44:56 10° N 00:48:03 20° NE 00:51:06 10° E
SJ 16-02 2.2 00:45:06 10° NW 00:49:04 33° WSW 00:51:20 20° SSW
AQUA 4.3 00:44:50 10° NNE 00:49:32 54° E 00:53:29 14° S
Cosmos 1656 Rocket 4.2 00:44:38 10° NNW 00:50:20 65° ENE 00:55:58 10° SE
Cosmos 1898 Rocket 3.5 00:45:33 10° NNW 00:50:52 86° ENE 00:56:04 10° SSE
ADEOS II 3.0 00:46:37 10° NNE 00:51:38 43° E 00:56:36 10° S
FALCON 9 DEB 3.6 00:49:40 10° W 00:52:44 53° NNW 00:55:50 10° ENE
FALCON 9 DEB 3.8 00:51:28 10° W 00:54:29 48° N 00:57:30 10° ENE
Meteor 2-2 Rocket 4.4 00:50:39 10° NNW 00:56:41 84° W 01:02:44 10° S
Cosmos 990 Rocket 4.0 00:52:01 10° NNW 00:57:13 70° WSW 01:02:20 10° SSE
Cosmos 1606 3.5 00:54:58 10° N 00:58:45 49° ENE 01:02:29 10° SSE
Cosmos 1937 Rocket 3.7 00:55:17 10° NNW 01:00:39 78° ENE 01:05:59 10° SSE
MINOTAUR 4 R/B 4.2 00:57:30 10° SSE 01:00:59 76° ENE 01:04:32 10° N
Cosmos 2279 Rocket 4.5 00:56:35 10° NNW 01:02:28 45° W 01:07:15 15° SSW
FALCON 9 DEB 3.9 00:59:29 10° W 01:02:30 47° N 01:05:32 10° ENE
Cosmos 1953 Rocket 3.9 01:03:15 18° SSW 01:06:18 51° WNW 01:10:36 10° N
Cosmos 1437 4.2 01:07:45 10° N 01:10:19 31° ENE 01:12:51 10° SE
FALCON 9 DEB 4.0 01:11:24 10° WNW 01:14:44 50° N 01:18:04 10° E
USA 229 DEB 3.7 01:09:31 15° SSW 01:14:57 72° SE 01:21:50 10° NE
USA 229 3.7 01:09:35 15° SSW 01:15:01 72° SE 01:21:53 10° NE
Cosmos 540 Rocket 4.0 01:11:08 12° S 01:15:44 54° ESE 01:20:44 10° NNE
BREEZE-M DEB (TANK) 1.2 01:13:09 10° W 01:16:00 84° S 01:18:16 10° E
Meteor 1-28 Rocket 3.6 01:13:07 10° SSE 01:16:52 65° ENE 01:20:39 10° N
IDEFIX/ARIANE 42P 3.7 01:11:59 10° NNE 01:16:55 39° E 01:21:47 10° SSE
CZ-4C R/B 4.3 01:16:16 10° SE 01:19:34 41° ENE 01:22:51 10° N
Cosmos 1892 4.3 01:20:42 13° WSW 01:23:23 24° WNW 01:26:36 10° NNW
Cosmos 1842 Rocket 3.7 01:19:29 10° NNW 01:23:45 58° W 01:27:56 10° S
Cosmos 1408 4.0 01:21:35 13° WSW 01:24:04 26° WNW 01:27:13 10° NNW
Cosmos 1943 3.4 01:20:06 12° SSW 01:25:13 66° ESE 01:30:50 10° NNE
NOSS 3-1 (C) 3.5 01:22:02 12° SW 01:27:10 71° NW 01:33:43 10° NE
Cosmos 1603 3.9 01:22:06 12° SSW 01:27:19 71° ESE 01:32:58 10° NNE
SL-16 R/B 3.0 01:22:25 11° SSW 01:28:01 42° W 01:33:52 10° NNW
Cosmos 2098 Rocket 3.7 01:23:20 11° SSW 01:29:15 73° W 01:34:16 10° N
X-37B 2.0 01:28:09 15° SSW 01:29:52 24° SSE 01:32:30 10° ESE
NOSS 8 (E) 4.2 01:27:36 15° SW 01:30:12 73° NW 01:33:10 10° NE
Landsat 4 3.7 01:26:43 10° NNE 01:30:32 86° ESE 01:34:07 11° SSW
ARIANE 5 R/B 4.2 01:26:27 10° NE 01:30:44 28° E 01:34:59 10° SSE
USA 215 4.3 01:27:22 10° E 01:33:37 50° N 01:39:53 10° WNW
NOSS 2-3 (E) 3.9 01:30:35 12° SW 01:34:30 67° NW 01:39:35 10° NE
NOSS 3-1 (A) 3.3 01:29:33 13° SW 01:34:33 85° SE 01:41:02 10° NE
Cosmos 468 Rocket 4.2 01:30:05 13° SW 01:34:42 64° WNW 01:39:54 10° NNE
Cosmos 1943 Rocket 3.5 01:36:21 10° NW 01:40:23 21° W 01:44:18 10° SSW
Nadezhda 4 Rocket 4.3 01:35:59 11° SSW 01:41:47 54° WNW 01:47:48 10° N
NPP 4.2 01:38:10 10° N 01:43:21 49° WNW 01:48:30 10° SW
Cosmos 2026 Rocket 4.1 01:38:27 10° S 01:44:40 83° E 01:51:02 10° N
Cosmos 405 Rocket 4.1 01:43:20 10° SW 01:46:22 25° WNW 01:49:29 10° NNW
Cosmos 2058 3.8 01:43:57 11° SW 01:47:31 35° WNW 01:51:18 10° N
SL-16 R/B 3.6 01:45:13 10° WSW 01:50:10 30° NW 01:55:09 10° NNE
IKONOS-2 4.5 01:48:01 10° S 01:52:15 76° WSW 01:56:30 10° NNW
Cosmos 1242 Rocket 3.3 01:51:13 10° NNW 01:54:29 35° W 01:57:46 10° SSW
Cosmos 372 Rocket 4.0 01:49:23 10° NNW 01:54:35 67° WSW 01:59:47 10° S
SeaSat 1 2.6 01:50:15 10° NNE 01:55:13 75° ESE 02:00:08 10° SSW
Meteor 1-29 3.6 01:52:04 10° N 01:55:20 41° WNW 01:58:34 10° SW
Cosmos 2237 Rocket 4.5 01:55:29 10° WNW 01:58:38 15° NNW 02:01:48 10° N
Cosmos 1763 Rocket 4.2 01:55:12 10° SW 02:00:00 42° WNW 02:04:53 10° NNE
Helios 1B rocket 3.8 01:56:39 10° N 02:00:05 26° WNW 02:03:31 10° WSW
USA 281 3.3 01:55:25 10° S 02:01:52 58° WSW 02:08:22 10° NNW
MSX 4.2 01:56:10 10° NNE 02:01:58 68° ESE 02:07:41 10° S
Cosmos 921 Rocket 3.0 01:58:42 10° SSW 02:02:56 82° WNW 02:07:10 10° NNE
FALCON 9 DEB 4.1 02:00:11 10° WNW 02:03:12 44° N 02:06:14 10° ENE
CZ-4B R/B 4.4 01:59:04 10° NNE 02:04:15 52° E 02:09:22 10° S
IRS-1D 3.7 01:59:33 10° N 02:04:44 63° WNW 02:09:45 10° SSW
CREW DRAGON DEMO-1 DEB 3.2 02:02:31 10° SW 02:04:50 35° SSE 02:07:09 10° E
CZ-2D R/B 3.4 02:01:31 10° N 02:05:53 28° WNW 02:10:14 10° WSW
Resurs 1-4 Rocket 3.5 02:03:00 10° N 02:07:22 27° WNW 02:11:46 10° WSW
Cosmos 1825 4.2 02:05:03 10° WSW 02:07:33 17° WNW 02:10:02 10° NNW
Cosmos 2369 Rocket 3.3 02:03:17 10° NW 02:07:52 25° WSW 02:12:25 10° SSW
CZ-2C R/B 4.2 02:03:36 10° NNE 02:08:03 30° E 02:12:22 10° SSE
SL-4 R/B 2.0 02:05:22 10° W 02:08:59 67° N 02:12:26 10° ENE
